TimeCDT,TemperatureF,Dew PointF,Humidity,Sea Level PressureIn,VisibilityMPH,Wind Direction,Wind SpeedMPH,Gust SpeedMPH,PrecipitationIn,Events,Conditions,WindDirDegrees,DateUTC
12:54 AM,64.9,57.9,78,30.14,10.0,North,3.5,-,N/A,,Clear,10,2013-08-04 05:54:00
1:54 AM,63.0,57.0,81,30.14,10.0,NNE,5.8,-,N/A,,Clear,30,2013-08-04 06:54:00
2:54 AM,61.0,57.0,87,30.13,10.0,NNE,5.8,-,N/A,,Clear,30,2013-08-04 07:54:00
3:54 AM,61.0,57.0,87,30.12,10.0,NE,3.5,-,N/A,,Clear,40,2013-08-04 08:54:00
4:54 AM,62.1,57.0,84,30.15,10.0,Calm,Calm,-,N/A,,Clear,0,2013-08-04 09:54:00
5:54 AM,59.0,55.0,87,30.15,10.0,NNE,4.6,-,N/A,,Clear,30,2013-08-04 10:54:00
6:54 AM,61.0,57.0,87,30.15,10.0,NE,3.5,-,N/A,,Clear,50,2013-08-04 11:54:00
7:54 AM,64.9,57.9,78,30.17,10.0,ENE,3.5,-,N/A,,Clear,70,2013-08-04 12:54:00
8:54 AM,68.0,57.9,70,30.17,10.0,East,6.9,-,N/A,,Clear,80,2013-08-04 13:54:00
9:54 AM,72.0,59.0,64,30.18,10.0,East,5.8,-,N/A,,Clear,90,2013-08-04 14:54:00
10:54 AM,73.9,59.0,59,30.18,10.0,South,4.6,-,N/A,,Clear,170,2013-08-04 15:54:00
11:54 AM,75.9,57.9,54,30.18,10.0,East,3.5,-,N/A,,Clear,100,2013-08-04 16:54:00
12:54 PM,77.0,57.0,50,30.16,10.0,Variable,3.5,-,N/A,,Clear,0,2013-08-04 17:54:00
1:54 PM,77.0,57.0,50,30.15,10.0,SSE,5.8,-,N/A,,Clear,150,2013-08-04 18:54:00
2:54 PM,77.0,57.0,50,30.14,10.0,South,4.6,-,N/A,,Partly Cloudy,170,2013-08-04 19:54:00
3:54 PM,80.1,57.0,45,30.12,10.0,Variable,3.5,-,N/A,,Partly Cloudy,0,2013-08-04 20:54:00
4:54 PM,79.0,57.0,47,30.10,10.0,SSE,4.6,-,N/A,,Clear,150,2013-08-04 21:54:00
5:54 PM,79.0,57.9,48,30.09,10.0,SE,5.8,-,N/A,,Clear,140,2013-08-04 22:54:00
6:54 PM,78.1,59.0,52,30.08,10.0,SSE,6.9,-,N/A,,Clear,150,2013-08-04 23:54:00
7:54 PM,73.0,60.1,64,30.07,10.0,SE,4.6,-,N/A,,Clear,140,2013-08-05 00:54:00
8:54 PM,69.1,60.1,73,30.08,10.0,SE,3.5,-,N/A,,Clear,130,2013-08-05 01:54:00
9:54 PM,69.1,60.1,73,30.09,10.0,SSE,4.6,-,N/A,,Clear,160,2013-08-05 02:54:00
10:54 PM,66.9,59.0,76,30.09,10.0,Calm,Calm,-,N/A,,Clear,0,2013-08-05 03:54:00
11:54 PM,68.0,59.0,73,30.09,10.0,ESE,3.5,-,N/A,,Mostly Cloudy,120,2013-08-05 04:54:00